カタログに戻る

STARLINK-37529

運用中通信SSO
NORAD 68918·PAYLOAD·🇺🇸 United States

打ち上げ Apr 30, 2026 から Vandenberg Space Force Base

Loading…

次のパス (今後24時間)

TLE

最新Source: CelesTrak SupGP

元期: Sep 14, 2026, 16:07 UTC

1 68918C 26097Z   26257.67201389 -.00070222  00000+0 -21810-2 0  2579
2 68918  97.2849  91.9698 0001993  87.7322 269.7778 15.33457004    15

AllMySatでSTARLINK-37529をリアルタイム追跡

Download on the App Store